GFSNGP_sfc_rhum_129.txt.gz
RH
54 57 57 86 79 82 83 87 94 95 87 91 84 82 81 81 86 83 75 75 68 70 71 79 89 89 90 85 81 80 80 85 79 74 77 78 81 83 81 82 83 83 84 85
100 74 61 94 96 99 73 74 76 69 88 73 72 70 79 86 84 79 65 64 69 71 71 72 72 77 73 75 73 74 76 75 72 71 70 76 76 77 79 78 79 80 86 86
79 86 67 77 98 92 69 59 59 69 76 74 74 75 83 80 77 73 69 67 77 82 82 74 72 68 72 66 67 71 74 71 68 70 70 73 71 73 75 78 76 78 78 78
82 72 88 98 63 59 70 69 61 72 75 66 70 73 70 72 78 77 67 66 70 85 82 76 63 62 65 67 68 71 76 75 71 68 70 70 74 76 78 79 80 79 79 79
70 68 84 83 68 67 73 78 62 69 74 68 67 64 72 67 76 82 66 57 57 62 87 63 58 54 58 66 69 74 85 81 78 75 74 73 76 82 75 78 82 81 77 80
59 63 79 65 48 46 47 76 51 59 69 68 65 87 86 72 80 79 55 43 41 39 39 60 59 50 51 66 70 85 91 87 78 79 82 89 89 88 84 81 87 81 90 91
64 63 68 48 54 56 84 91 55 51 58 64 72 83 85 79 83 76 48 38 34 33 34 34 37 44 51 48 80 68 58 80 73 76 91 87 83 88 94 96 90 98 100 100
60 62 81 52 64 79 76 57 50 50 54 65 67 65 64 76 73 53 41 30 28 31 33 33 31 34 40 45 36 40 50 49 60 69 60 86 89 85 86 88 90 90 92 93
65 82 75 64 73 56 51 54 50 51 49 53 59 61 60 54 40 32 27 25 24 26 31 32 30 31 35 36 30 33 39 44 44 46 52 63 69 85 72 77 78 78 80 83
72 79 70 66 63 55 51 52 47 45 46 47 49 46 44 36 31 25 22 22 22 24 28 32 31 33 35 33 30 29 33 38 39 42 41 42 49 53 66 74 73 74 81 86
82 71 63 61 71 68 58 49 47 45 44 45 44 40 34 32 28 24 23 23 22 25 27 29 30 32 34 33 32 31 33 36 44 42 41 39 46 62 60 78 74 76 82 84
87 71 64 64 61 58 56 52 47 46 45 40 38 36 29 28 26 24 26 23 21 22 25 26 29 33 36 37 36 41 40 40 49 50 49 45 45 47 71 71 71 67 66 71
68 57 60 62 56 48 50 47 44 42 40 40 36 31 30 29 30 34 25 26 24 24 25 28 34 41 45 46 45 51 52 50 51 52 52 56 57 61 67 66 61 61 64 63
51 57 65 55 57 48 43 41 44 38 38 37 34 33 34 32 31 29 29 28 25 24 26 31 38 61 61 54 52 62 70 65 71 72 73 71 69 69 68 70 72 72 61 63
53 46 51 46 44 43 41 41 42 42 40 39 36 36 34 32 32 34 33 30 27 26 30 38 50 68 67 63 64 63 63 66 70 70 70 66 66 66 64 64 65 66 63 61
47 44 45 50 45 45 44 44 42 43 42 39 38 37 35 35 36 37 37 40 37 50 51 75 62 70 64 58 61 51 58 62 62 65 65 64 65 65 63 64 64 66 66 78
54 57 52 52 50 49 48 45 42 42 41 40 40 38 36 36 40 43 48 53 68 69 58 63 77 74 75 75 76 64 65 63 61 61 63 63 65 65 63 64 66 66 70 84
43 45 45 46 49 49 48 46 45 44 46 44 49 61 75 69 54 66 73 72 73 75 71 71 79 76 73 75 74 66 63 63 61 62 61 66 66 61 64 66 64 64 67 63
41 44 46 45 47 47 48 49 49 49 63 77 83 80 78 79 76 79 80 81 78 81 84 73 59 72 70 69 63 59 60 63 61 56 62 64 68 64 66 69 65 66 68 70
46 48 47 48 47 48 52 53 65 72 79 83 85 85 83 84 84 85 82 78 72 74 72 68 67 68 63 55 55 51 59 66 60 63 68 64 71 74 70 63 66 71 76 80
62 63 79 80 88 87 82 85 84 89 85 85 79 80 81 80 84 82 82 70 81 76 68 65 62 51 43 50 47 58 68 71 68 68 70 75 77 72 73 75 73 75 81 82
99 93 88 89 88 89 88 84 84 85 82 78 78 82 83 84 86 83 80 77 64 76 56 54 49 58 49 72 50 69 65 63 69 72 76 78 78 79 78 77 77 78 76 80
97 91 88 88 88 87 85 84 84 80 79 79 82 82 76 62 65 69 68 70 60 69 60 60 59 70 70 79 75 79 76 75 74 78 79 78 79 83 79 78 77 78 81 79
93 88 86 84 83 81 86 85 78 77 77 76 77 79 65 72 74 58 54 62 68 68 73 72 84 73 76 78 77 80 82 81 83 83 79 76 85 84 84 82 78 78 82 80
88 86 85 88 79 72 72 75 68 67 64 51 56 60 63 54 74 67 74 71 64 74 73 70 82 76 81 78 78 83 83 84 87 82 78 82 78 82 82 78 78 76 76 75
84 73 71 76 65 57 57 57 54 53 50 64 65 75 76 75 70 70 68 65 66 63 72 78 80 92 89 82 83 82 81 78 82 83 85 78 81 80 80 78 78 77 76 78
75 71 64 63 54 51 52 51 57 61 60 74 71 79 78 86 83 70 67 73 74 76 79 84 84 81 78 81 80 76 82 84 84 86 80 83 80 82 83 81 80 80 78 81

GFSNGP_sfc_rhum_132.txt.gz
RH
54 51 57 80 66 71 77 87 92 92 82 81 81 81 81 76 76 67 62 65 68 72 77 83 90 90 90 84 90 94 97 96 96 88 82 78 80 79 78 80 78 79 82 84
100 65 59 87 93 99 62 68 73 72 87 76 70 69 78 76 72 70 64 63 67 70 71 71 71 81 81 84 83 79 80 83 77 78 76 77 76 77 77 77 78 78 81 80
77 84 65 90 91 88 62 56 58 70 77 72 70 73 79 77 74 70 66 64 76 76 80 70 65 66 73 73 74 77 80 75 73 72 74 77 74 72 78 79 78 80 81 80
73 79 92 95 58 54 60 62 59 68 69 63 69 70 69 71 74 74 62 61 69 87 82 71 60 60 65 66 72 74 76 74 72 73 74 74 76 77 78 76 78 80 80 80
69 76 82 77 56 59 63 70 57 66 65 64 64 65 75 68 73 78 60 55 58 72 88 62 58 53 56 66 69 78 78 78 77 75 76 78 81 85 80 81 83 84 83 80
66 70 78 67 46 41 43 72 54 59 67 68 63 85 92 73 74 74 50 39 37 37 37 64 60 48 49 65 67 73 86 76 74 81 80 84 84 84 83 82 84 82 84 86
68 60 78 47 45 45 76 85 52 53 59 62 70 87 84 79 79 74 57 32 31 32 33 33 35 45 49 48 68 61 57 72 70 74 84 81 81 81 84 85 83 85 86 86
58 61 91 48 55 74 71 55 50 52 54 62 77 72 70 77 82 58 34 25 25 30 33 32 31 34 40 46 36 42 52 53 57 70 64 77 82 81 80 82 84 85 86 86
75 83 70 68 74 56 48 52 52 56 59 63 65 65 64 63 36 28 24 23 22 26 30 31 32 33 36 37 31 35 44 51 55 54 58 66 73 83 80 79 81 83 84 86
73 75 68 72 57 50 46 50 47 47 50 52 57 53 47 37 29 23 20 20 21 25 28 32 31 33 37 36 33 33 39 46 47 52 52 55 61 68 83 85 84 82 84 88
80 70 65 63 65 58 52 47 46 45 46 47 45 41 34 29 25 22 21 21 22 26 28 29 31 34 37 37 37 39 40 46 55 53 53 53 67 75 76 90 82 86 89 88
83 70 66 72 68 61 62 54 46 46 45 42 37 33 29 28 26 24 24 21 21 25 27 28 32 38 41 42 42 50 50 51 64 65 64 60 60 64 73 78 75 68 63 77
68 58 65 69 64 58 60 51 45 44 40 40 33 28 28 28 28 36 25 24 24 26 29 33 43 51 51 52 53 60 62 60 66 66 66 69 71 74 81 75 66 66 63 65
50 57 67 57 60 48 45 42 43 38 37 36 32 30 35 33 32 29 30 27 24 26 32 38 48 69 65 57 59 68 83 81 83 86 87 84 82 82 83 84 85 84 68 68
52 48 53 48 45 45 41 42 42 43 41 40 38 39 38 35 34 35 33 30 27 31 39 45 58 79 77 73 72 78 72 78 83 84 85 82 81 80 79 79 80 81 79 84
45 45 47 50 47 44 44 42 44 47 46 44 42 40 38 36 37 37 38 44 38 56 58 87 71 80 70 68 71 63 72 78 77 78 80 78 80 80 77 80 80 81 83 95
52 57 54 54 51 49 47 46 46 47 45 44 45 42 40 41 43 46 52 58 76 83 72 78 88 88 88 88 86 79 80 76 79 74 77 79 80 79 79 80 82 82 85 87
42 46 46 48 53 55 53 51 48 48 49 48 54 68 77 74 65 78 85 86 87 89 85 88 89 88 92 86 86 81 79 77 75 78 77 83 80 77 81 81 80 80 80 79
41 45 49 46 52 54 54 53 52 51 68 81 81 86 87 89 87 89 90 92 92 90 92 89 78 81 86 82 76 72 76 77 75 71 77 79 81 81 82 83 81 82 82 83
45 47 50 54 52 56 57 59 68 81 86 86 89 90 91 93 92 93 92 91 85 91 89 85 83 81 80 78 69 58 73 80 74 78 83 80 86 87 84 81 81 85 87 87
68 70 79 84 88 86 87 84 87 92 92 90 90 92 91 91 93 93 91 82 83 88 83 76 72 63 52 57 53 71 81 84 84 83 84 86 87 85 86 86 85 86 88 88
93 91 92 90 91 94 91 89 91 92 93 91 91 90 92 92 93 92 91 90 82 85 69 66 63 72 62 75 56 82 79 79 83 85 86 88 88 87 88 88 87 87 88 88
94 91 92 93 92 92 91 92 92 90 90 88 91 90 88 78 78 81 80 82 67 86 69 74 80 83 82 89 86 86 85 86 86 87 88 88 88 88 87 87 87 88 88 87
95 91 91 89 90 89 92 92 87 86 89 87 89 90 78 83 84 70 67 81 76 82 86 85 92 84 86 90 88 87 87 91 90 88 88 88 85 84 85 83 84 85 87 89
88 90 90 92 88 82 82 83 79 78 74 62 67 67 74 65 85 86 87 84 77 81 84 80 82 90 89 90 89 87 87 88 91 94 89 89 88 87 85 83 86 90 92 92
84 81 79 82 73 68 69 67 65 66 62 74 73 80 82 79 77 78 83 80 81 73 82 87 90 89 94 95 93 92 92 84 88 92 92 89 87 88 88 92 92 92 94 94
77 76 72 71 62 62 65 62 68 72 70 80 79 84 83 91 89 79 77 85 86 87 88 89 88 88 92 89 90 89 90 89 87 89 90 91 84 85 92 93 88 85 86 87

GFSNGP_sfc_rhum_138.txt.gz
RH
79 80 87 97 77 76 74 84 90 85 93 91 90 86 85 84 88 78 80 74 78 84 90 86 84 83 82 79 84 84 85 88 93 88 91 85 85 78 78 80 80 78 80 80
97 84 75 91 92 94 86 82 96 87 93 89 86 85 85 86 77 80 77 66 72 78 82 78 72 73 76 76 77 72 74 82 85 84 81 85 85 82 77 76 78 79 79 80
84 85 82 92 84 89 82 77 81 96 84 87 89 85 93 89 83 81 77 69 75 84 86 78 82 76 74 73 72 74 71 67 74 80 81 80 77 78 79 77 76 80 81 77
94 91 96 78 80 74 73 76 78 84 89 85 86 90 86 81 83 78 75 78 70 91 86 78 70 75 71 75 70 79 76 71 64 66 74 76 74 79 81 78 79 82 83 81
96 93 83 85 72 77 76 78 77 86 84 88 85 81 87 77 82 88 81 78 73 76 91 72 67 67 70 70 75 75 87 79 75 69 70 74 78 81 79 80 84 83 82 83
95 94 94 80 63 54 57 90 73 76 87 88 85 93 93 82 82 86 79 65 60 50 52 71 71 63 71 76 76 81 86 91 80 77 78 85 86 84 82 80 81 82 83 86
95 95 87 64 57 55 85 80 71 74 79 82 88 96 90 82 86 85 72 45 44 46 50 50 50 61 67 72 81 75 70 82 85 86 86 87 85 86 89 89 86 91 92 92
91 92 92 66 61 76 76 80 70 71 72 77 92 88 84 82 84 76 69 41 41 47 51 50 50 51 59 69 62 65 74 72 81 87 76 84 94 90 89 88 88 88 85 86
85 88 86 83 82 75 68 81 81 73 67 82 86 79 76 76 68 46 38 38 40 45 50 54 54 56 62 64 55 63 68 71 74 76 81 85 87 92 89 88 86 83 82 83
85 88 89 80 72 68 73 81 79 76 77 74 71 66 63 64 60 33 34 38 39 44 50 57 59 57 61 64 56 61 68 71 69 75 77 83 88 87 92 94 90 84 83 91
94 86 83 75 75 75 75 71 71 69 69 68 61 60 58 50 31 31 32 35 39 46 51 56 60 63 68 65 66 57 68 73 79 72 80 82 83 97 90 97 90 95 98 97
88 81 80 83 77 68 72 71 65 64 64 55 50 52 38 33 31 30 36 38 42 46 52 59 62 66 66 70 68 63 66 73 86 93 90 86 88 81 69 73 67 83 68 76
86 74 81 85 71 59 69 67 62 60 55 54 46 39 37 37 35 39 36 40 45 53 57 60 63 65 68 70 70 70 72 68 78 82 82 83 82 86 96 84 69 67 68 65
74 82 89 81 83 59 59 56 54 54 50 46 42 40 40 40 39 37 37 43 48 56 62 62 62 81 79 73 73 84 88 87 93 97 98 95 95 95 98 98 98 95 87 71
74 72 80 77 65 63 64 64 62 59 55 53 45 43 44 44 42 41 42 42 46 57 64 67 70 90 92 87 87 92 89 94 96 98 97 96 96 96 98 96 98 98 96 94
72 73 78 79 77 69 64 62 62 63 57 57 51 52 52 46 46 53 52 49 52 66 69 90 80 91 81 73 78 81 93 94 93 97 97 94 96 96 97 96 98 98 98 98
81 84 79 75 69 65 63 64 60 62 61 55 54 57 52 51 55 62 71 76 83 88 86 86 93 95 94 96 95 97 98 98 94 96 97 97 97 97 98 98 98 98 98 99
62 67 66 67 69 73 71 68 64 62 58 62 65 70 76 74 73 86 89 91 91 94 94 92 95 95 94 97 96 96 97 98 97 96 97 96 96 98 98 98 98 98 98 97
67 71 74 68 68 69 71 71 66 63 75 79 79 78 81 85 86 90 93 90 93 94 91 92 89 92 93 96 96 97 94 94 97 97 98 98 97 98 98 99 98 98 97 97
72 75 74 75 74 71 73 73 77 81 86 83 86 87 90 95 91 93 94 90 89 89 94 91 90 92 92 93 94 94 94 97 97 98 98 97 99 100 100 99 97 97 99 98
80 84 83 82 88 90 84 84 83 85 90 84 80 85 88 95 94 95 99 97 89 91 93 91 92 93 92 94 85 93 96 98 99 98 99 98 100 99 100 100 99 99 99 100
90 89 90 91 88 97 97 91 88 90 90 90 91 92 94 97 96 98 95 89 95 95 90 88 87 86 87 86 80 94 96 97 98 99 99 99 100 99 99 100 100 99 99 98
92 91 93 92 91 95 96 96 94 89 90 91 91 92 90 90 91 94 89 82 90 92 87 94 94 96 94 94 96 98 98 98 99 98 98 98 98 98 98 98 97 98 98 96
96 94 97 97 95 94 97 99 96 95 93 93 93 92 88 97 98 84 94 96 88 94 94 97 94 92 92 97 98 99 99 98 98 98 96 98 98 98 99 97 96 95 95 94
96 99 98 96 96 97 95 96 95 94 91 84 85 84 87 95 94 97 95 95 94 94 96 95 96 96 98 98 98 98 97 98 98 97 98 99 100 98 96 96 97 98 98 96
96 98 98 96 96 96 93 91 93 90 87 95 95 98 96 97 96 94 95 95 95 94 95 96 95 95 96 96 97 97 97 97 100 100 100 100 100 100 100 100 100 100 100 100
95 93 97 99 98 95 93 95 96 97 95 94 94 97 91 97 97 96 96 97 96 96 96 96 95 95 94 98 99 99 100 100 100 100 100 100 100 100 100 100 100 100 100 99

GFSNGP_sfc_rhum_141.txt.gz
RH
78 78 80 94 89 79 85 85 92 85 88 92 91 89 92 87 86 86 74 75 77 85 90 90 90 87 83 82 78 78 81 85 88 89 93 85 86 90 88 85 85 89 78 80
99 91 97 100 99 97 85 80 89 89 92 89 91 89 92 88 83 85 69 66 72 76 75 80 81 80 78 79 79 71 66 68 77 77 81 88 83 82 81 74 73 77 77 78
90 89 93 98 89 87 82 78 80 91 82 95 97 91 92 89 85 83 75 65 76 84 84 79 82 79 80 79 78 73 72 65 65 72 69 73 74 74 79 76 74 74 78 75
92 91 96 78 77 72 73 76 81 85 94 88 87 93 92 87 83 80 74 66 71 91 87 80 76 78 77 77 81 79 75 70 68 68 69 68 69 69 72 73 76 81 77 76
89 93 79 85 74 81 82 79 78 84 90 94 91 87 94 83 84 84 79 71 73 80 92 75 74 74 75 79 80 87 85 78 75 72 73 73 76 80 74 75 81 83 84 80
96 91 94 76 67 59 56 87 80 81 90 92 83 97 96 85 84 86 78 69 57 59 60 74 76 70 74 82 84 88 94 88 78 78 81 87 87 85 81 77 78 79 85 87
92 96 83 70 63 56 79 78 79 78 83 83 85 91 91 84 87 85 67 46 47 48 52 54 58 68 76 78 90 82 77 86 85 80 87 89 87 87 88 88 83 87 88 90
98 95 88 66 67 73 76 83 77 78 78 79 92 91 83 82 87 70 51 45 44 51 55 56 56 59 70 77 72 75 77 77 85 90 76 84 95 91 89 88 87 86 86 88
80 86 86 86 84 75 73 81 80 78 76 83 90 82 76 80 71 56 41 42 44 51 57 60 60 62 70 70 68 71 71 78 82 80 84 86 91 93 87 87 85 82 82 86
83 87 88 82 76 73 77 82 80 74 74 79 80 75 68 65 56 45 39 42 44 50 56 61 64 61 68 66 64 70 71 67 73 78 80 83 88 91 95 97 92 82 84 92
90 87 86 79 78 79 84 82 81 78 77 74 68 60 57 58 42 39 39 41 43 50 54 61 62 67 70 69 63 67 70 67 79 75 80 83 79 91 88 98 91 96 98 98
86 78 76 79 82 79 81 82 79 76 73 59 54 51 54 43 39 39 42 43 48 50 54 62 64 67 70 72 60 64 65 70 85 92 90 80 85 82 70 72 66 65 62 77
82 80 80 86 79 71 77 74 71 70 64 70 82 55 42 42 41 43 42 46 50 52 54 59 60 66 68 70 67 61 71 69 77 77 75 83 93 92 97 86 71 65 64 63
81 78 82 78 79 70 68 68 64 62 59 57 48 42 43 42 44 42 44 48 54 56 55 54 61 80 78 74 72 79 88 90 96 98 97 97 98 98 98 99 99 97 83 70
79 77 78 75 64 65 64 64 64 58 53 52 46 46 44 42 40 43 49 48 51 58 60 59 68 92 94 91 90 94 84 94 98 98 97 96 97 97 97 98 98 98 97 94
81 83 78 73 75 71 60 63 62 64 60 58 53 51 46 42 43 46 48 52 55 68 72 84 75 90 77 73 80 79 88 92 95 95 95 95 97 97 97 98 98 99 98 98
88 93 91 87 81 75 70 67 62 61 60 55 54 57 50 51 56 60 65 75 81 86 86 87 89 95 95 93 91 90 94 97 95 94 97 97 98 98 98 98 99 99 99 100
70 76 78 76 77 77 73 70 64 60 57 59 65 72 77 73 71 85 90 91 92 96 95 92 93 92 94 96 95 93 92 94 96 96 97 97 97 98 98 98 98 99 97 97
72 75 78 73 74 73 72 71 66 63 76 80 79 78 79 83 85 88 92 92 94 94 92 92 93 92 93 95 96 96 93 94 94 97 98 99 98 98 99 99 98 98 97 97
77 79 78 76 74 73 73 73 77 81 86 83 87 86 85 92 89 90 90 85 86 90 93 91 90 93 92 92 89 97 94 97 97 99 99 98 99 99 100 100 100 99 100 99
82 85 84 83 87 89 85 86 85 85 91 84 80 81 80 90 91 93 95 91 88 92 96 93 93 94 93 96 95 97 95 98 100 99 100 100 100 100 100 98 99 100 99 100
93 91 92 90 88 93 95 94 89 89 88 91 93 90 90 96 96 97 95 92 94 92 93 90 87 86 86 96 88 95 94 96 97 98 99 100 100 100 100 99 99 98 100 100
92 93 93 91 91 92 95 95 94 88 88 88 88 90 88 90 92 94 95 85 92 93 87 91 91 95 96 97 95 96 96 96 98 100 100 100 99 99 99 98 98 99 98 97
96 94 97 96 95 93 93 98 96 93 93 92 92 92 90 97 99 97 97 95 91 92 94 94 96 95 94 96 96 97 98 99 99 100 99 98 98 98 100 100 100 100 100 99
95 98 97 95 94 97 94 96 96 94 90 85 85 82 85 87 92 93 97 97 93 96 96 97 96 95 97 98 97 97 98 98 99 98 100 100 100 100 100 100 100 100 100 100
95 97 97 96 96 96 93 90 94 94 94 96 96 97 98 99 98 96 96 96 96 97 97 97 97 96 97 96 97 97 97 97 99 100 100 100 100 100 100 100 100 100 100 100
94 93 96 98 97 92 93 93 96 97 96 96 95 97 94 98 98 97 99 97 96 96 96 96 96 96 96 98 98 99 99 99 100 100 100 100 100 100 100 100 100 100 100 100

GFSNGP_sfc_rhum_144.txt.gz
RH
80 79 86 98 98 90 98 91 99 93 90 88 90 91 91 93 90 83 74 77 76 83 88 90 93 93 90 84 79 79 80 82 81 77 85 78 85 84 82 82 92 94 91 94
95 89 89 98 95 94 93 97 98 92 84 84 91 87 94 93 87 85 63 70 72 71 74 77 79 87 85 87 78 70 70 72 75 69 72 80 74 80 80 74 72 83 84 76
93 92 98 99 92 94 85 85 78 91 76 96 97 94 94 91 86 83 69 70 74 80 81 79 82 81 90 89 77 74 71 68 68 68 67 69 66 68 77 79 74 72 76 72
97 96 97 76 76 74 81 74 76 79 93 91 92 94 92 86 85 81 67 68 77 91 86 80 81 83 84 87 80 75 75 73 70 69 68 68 67 68 72 74 75 78 73 76
97 96 78 66 74 80 81 73 74 82 93 96 93 87 93 84 84 85 75 72 77 80 93 79 76 77 80 88 90 80 83 79 77 73 73 72 74 78 72 76 81 82 81 74
98 90 90 71 68 64 62 84 82 83 91 93 84 98 96 86 84 85 72 70 70 65 71 79 76 73 78 87 91 95 95 87 79 78 81 87 87 84 78 77 80 80 82 85
98 96 90 68 67 60 80 74 83 82 85 86 88 91 90 86 87 84 70 53 51 52 59 60 68 70 78 82 94 86 80 86 84 81 86 88 86 85 88 87 83 91 94 93
98 97 93 68 68 74 74 86 81 83 83 81 92 91 86 84 87 68 52 50 48 54 60 60 60 65 76 82 76 77 80 80 85 89 75 84 94 88 87 86 86 88 89 91
83 85 82 86 84 79 76 80 82 83 80 85 90 88 85 82 64 48 46 45 48 54 60 61 62 64 71 71 71 69 72 78 79 79 82 85 92 94 87 83 82 80 83 87
79 85 88 85 78 75 79 82 79 78 81 83 83 81 81 69 52 48 45 48 49 54 59 64 64 62 70 65 72 68 66 68 71 76 78 80 83 89 94 96 87 80 84 91
86 86 85 81 80 78 85 83 80 80 82 80 77 76 70 64 59 46 45 49 49 54 59 62 65 70 67 64 68 67 66 67 68 69 72 76 78 89 91 98 84 94 97 97
86 75 73 75 83 80 84 87 84 82 80 69 63 64 58 56 51 47 50 49 51 50 56 63 66 70 72 68 62 64 62 68 81 80 77 74 81 79 73 73 64 62 62 80
78 80 86 89 83 76 82 84 81 76 71 65 57 58 50 51 51 51 51 51 51 51 53 60 65 68 71 70 59 64 72 69 77 67 70 85 89 86 94 84 65 63 63 63
82 78 82 81 82 74 74 76 71 69 79 67 62 57 57 51 52 50 50 49 51 53 53 55 62 82 81 76 64 79 91 91 93 95 97 97 98 98 99 98 98 97 82 70
83 80 76 75 72 76 72 69 70 67 68 70 57 53 50 52 50 50 55 51 51 56 56 62 73 91 95 95 87 91 86 95 97 97 97 96 96 97 98 98 98 98 97 94
87 79 75 74 75 76 72 67 64 64 58 55 54 52 50 45 50 56 55 58 62 70 70 80 78 90 79 79 84 84 90 91 94 94 96 96 97 97 97 98 98 99 98 98
90 93 86 81 76 74 71 65 61 61 59 54 56 57 50 52 57 62 69 78 81 88 87 85 87 97 95 94 93 96 98 97 94 97 97 97 97 97 98 98 98 99 99 100
73 83 81 77 78 79 74 71 66 64 63 65 68 73 77 72 66 81 87 90 91 96 94 91 92 96 97 96 95 96 97 97 97 96 97 97 97 97 99 99 98 99 98 97
74 80 83 80 80 78 76 72 69 67 77 82 81 79 80 83 83 86 92 91 92 94 94 98 94 96 95 98 94 96 93 97 96 97 97 98 98 98 98 99 98 98 99 98
80 80 80 79 76 76 74 73 77 82 89 85 88 86 86 93 89 90 94 90 93 94 95 90 95 93 95 95 97 97 94 96 95 98 99 99 100 100 100 99 98 99 99 100
83 86 86 85 89 90 88 88 85 85 91 85 80 81 82 91 93 91 92 89 85 93 95 90 89 95 89 90 91 97 94 95 98 98 99 100 100 100 100 100 100 100 100 100
94 92 93 90 88 93 95 94 89 89 90 91 92 89 89 96 97 98 96 90 92 95 94 91 86 84 81 92 89 96 88 96 98 98 99 100 100 100 100 100 100 100 100 100
92 93 94 93 90 92 94 92 94 89 89 88 88 88 86 88 88 90 93 87 93 93 91 92 91 92 92 97 94 95 97 98 98 98 98 99 100 100 100 100 100 100 100 100
95 93 97 96 93 91 91 97 93 90 91 90 90 90 88 95 98 93 93 94 95 92 95 95 96 97 95 97 98 98 97 98 98 99 98 98 100 100 100 100 100 100 100 100
95 97 96 94 92 97 94 95 93 91 88 82 84 82 84 86 93 92 97 95 94 95 98 99 97 98 98 97 97 97 98 98 98 98 99 99 100 100 100 100 100 100 100 100
93 96 98 96 94 95 93 91 94 96 95 96 96 98 97 97 93 93 96 95 96 98 98 98 97 96 97 97 97 97 98 96 98 98 98 97 98 99 100 100 100 100 100 100
93 93 97 98 95 92 93 95 97 97 97 97 97 98 97 98 96 96 97 97 97 96 96 97 97 95 96 96 97 98 98 98 97 97 100 100 100 100 100 100 100 100 99 100